Time,TemperatureF,DewpointF,PressureIn,WindDirection,WindDirectionDegrees,WindSpeedMPH,WindSpeedGustMPH,Humidity,HourlyPrecipIn,Conditions,Clouds,dailyrainin,SolarRadiationWatts/m^2,SoftwareType,DateUTC
2013-05-11 00:02:00,70.0,66.0,-100.00,SSE,164,1.0,7.0,87,0.00,,,0.70,113.000000,,2013-05-11 00:02:00,
2013-05-11 00:11:00,70.0,66.0,-100.00,SSE,164,1.0,7.0,87,0.00,,,0.70,113.000000,,2013-05-11 00:11:00,
2013-05-11 00:21:00,70.0,66.0,-100.00,SSE,164,1.0,7.0,87,0.00,,,0.70,113.000000,,2013-05-11 00:21:00,
2013-05-11 00:32:00,70.0,66.0,-100.00,SSE,164,1.0,7.0,87,0.00,,,0.70,113.000000,,2013-05-11 00:32:00,
2013-05-11 01:01:00,68.0,65.0,-100.00,South,176,1.0,3.0,90,0.00,,,0.70,34.000000,,2013-05-11 01:01:00,
2013-05-11 01:11:00,68.0,65.0,-100.00,South,176,1.0,3.0,90,0.00,,,0.70,34.000000,,2013-05-11 01:11:00,
2013-05-11 01:21:00,68.0,65.0,-100.00,South,176,1.0,3.0,90,0.00,,,0.70,34.000000,,2013-05-11 01:21:00,
2013-05-11 01:32:00,68.0,65.0,-100.00,South,176,1.0,3.0,90,0.00,,,0.70,34.000000,,2013-05-11 01:32:00,
2013-05-11 02:02:00,66.0,65.0,-100.00,South,179,0.0,4.0,96,0.00,,,0.70,1.000000,,2013-05-11 02:02:00,
2013-05-11 02:11:00,66.0,65.0,-100.00,South,179,0.0,4.0,96,0.00,,,0.70,1.000000,,2013-05-11 02:11:00,
2013-05-11 02:22:00,66.0,65.0,-100.00,South,179,0.0,4.0,96,0.00,,,0.70,1.000000,,2013-05-11 02:22:00,
2013-05-11 02:32:00,66.0,65.0,-100.00,South,179,0.0,4.0,96,0.00,,,0.70,1.000000,,2013-05-11 02:32:00,
2013-05-11 03:01:00,65.0,64.0,-100.00,North,351,1.0,4.0,97,0.00,,,0.70,0.000000,,2013-05-11 03:01:00,
2013-05-11 03:11:00,65.0,64.0,-100.00,North,351,1.0,4.0,97,0.00,,,0.70,0.000000,,2013-05-11 03:11:00,
2013-05-11 03:21:00,65.0,64.0,-100.00,North,351,1.0,4.0,97,0.00,,,0.70,0.000000,,2013-05-11 03:21:00,
2013-05-11 03:33:00,65.0,64.0,-100.00,North,351,1.0,4.0,97,0.00,,,0.70,0.000000,,2013-05-11 03:33:00,
2013-05-11 04:03:00,64.0,61.0,-100.00,NNE,18,3.0,-999.0,91,0.00,,,0.70,,,2013-05-11 04:03:00,
2013-05-11 04:12:00,64.0,61.0,-100.00,NNE,18,3.0,-999.0,91,0.00,,,0.70,,,2013-05-11 04:12:00,
2013-05-11 04:23:00,64.0,61.0,-100.00,NNE,18,3.0,-999.0,91,0.00,,,0.70,,,2013-05-11 04:23:00,
2013-05-11 04:33:00,64.0,61.0,-100.00,NNE,18,3.0,-999.0,91,0.00,,,0.70,,,2013-05-11 04:33:00,
2013-05-11 05:02:00,63.0,60.0,-100.00,NW,309,4.0,8.0,91,0.01,,,0.71,0.000000,,2013-05-11 05:02:00,
2013-05-11 05:12:00,63.0,60.0,-100.00,NW,309,4.0,8.0,91,0.01,,,0.71,0.000000,,2013-05-11 05:12:00,
2013-05-11 05:21:00,63.0,60.0,-100.00,NW,309,4.0,8.0,91,0.01,,,0.71,0.000000,,2013-05-11 05:21:00,
2013-05-11 05:32:00,63.0,60.0,-100.00,NW,309,4.0,8.0,91,0.01,,,0.71,0.000000,,2013-05-11 05:32:00,
2013-05-11 06:02:00,61.0,58.0,-100.00,NNW,332,2.0,8.0,90,0.00,,,0.71,0.000000,,2013-05-11 06:02:00,
2013-05-11 06:12:00,61.0,58.0,-100.00,NNW,332,2.0,8.0,90,0.00,,,0.71,0.000000,,2013-05-11 06:12:00,
2013-05-11 06:21:00,61.0,58.0,-100.00,NNW,332,2.0,8.0,90,0.00,,,0.71,0.000000,,2013-05-11 06:21:00,
2013-05-11 06:32:00,61.0,58.0,-100.00,NNW,332,2.0,8.0,90,0.00,,,0.71,0.000000,,2013-05-11 06:32:00,
2013-05-11 07:02:00,60.0,58.0,-100.00,West,279,1.0,6.0,92,0.00,,,0.71,0.000000,,2013-05-11 07:02:00,
2013-05-11 07:12:00,60.0,58.0,-100.00,West,279,1.0,6.0,92,0.00,,,0.71,0.000000,,2013-05-11 07:12:00,
2013-05-11 07:21:00,60.0,58.0,-100.00,West,279,1.0,6.0,92,0.00,,,0.71,0.000000,,2013-05-11 07:21:00,
2013-05-11 07:32:00,60.0,58.0,-100.00,West,279,1.0,6.0,92,0.00,,,0.71,0.000000,,2013-05-11 07:32:00,
2013-05-11 08:01:00,58.0,57.0,-100.00,North,349,0.0,4.0,95,0.00,,,-99.99,0.000000,,2013-05-11 08:01:00,
2013-05-11 08:12:00,58.0,57.0,-100.00,North,349,0.0,4.0,95,0.00,,,-99.99,0.000000,,2013-05-11 08:12:00,
2013-05-11 08:21:00,58.0,57.0,-100.00,North,349,0.0,4.0,95,0.00,,,-99.99,0.000000,,2013-05-11 08:21:00,
2013-05-11 08:32:00,58.0,57.0,-100.00,North,349,0.0,4.0,95,0.00,,,-99.99,0.000000,,2013-05-11 08:32:00,
2013-05-11 09:01:00,57.0,56.0,-100.00,NW,310,1.0,5.0,95,0.00,,,0.71,0.000000,,2013-05-11 09:01:00,
2013-05-11 09:11:00,57.0,56.0,-100.00,NW,310,1.0,5.0,95,0.00,,,0.71,0.000000,,2013-05-11 09:11:00,
2013-05-11 09:21:00,57.0,56.0,-100.00,NW,310,1.0,5.0,95,0.00,,,0.71,0.000000,,2013-05-11 09:21:00,
2013-05-11 09:32:00,57.0,56.0,-100.00,NW,310,1.0,5.0,95,0.00,,,0.71,0.000000,,2013-05-11 09:32:00,
2013-05-11 10:03:00,55.0,54.0,-100.00,West,266,2.0,5.0,97,0.00,,,0.71,0.000000,,2013-05-11 10:03:00,
2013-05-11 10:12:00,55.0,54.0,-100.00,West,266,2.0,5.0,97,0.00,,,0.71,0.000000,,2013-05-11 10:12:00,
2013-05-11 10:22:00,55.0,54.0,-100.00,West,266,2.0,5.0,97,0.00,,,0.71,0.000000,,2013-05-11 10:22:00,
2013-05-11 10:33:00,55.0,54.0,-100.00,West,266,2.0,5.0,97,0.00,,,0.71,0.000000,,2013-05-11 10:33:00,
2013-05-11 11:02:00,56.0,54.0,-100.00,NW,309,2.0,5.0,94,0.00,,,0.55,0.000000,,2013-05-11 11:02:00,
2013-05-11 11:12:00,56.0,54.0,-100.00,NW,309,2.0,5.0,94,0.00,,,0.55,0.000000,,2013-05-11 11:12:00,
2013-05-11 11:21:00,56.0,54.0,-100.00,NW,309,2.0,5.0,94,0.00,,,0.55,0.000000,,2013-05-11 11:21:00,
2013-05-11 11:32:00,56.0,54.0,-100.00,NW,309,2.0,5.0,94,0.00,,,0.55,0.000000,,2013-05-11 11:32:00,
2013-05-11 12:01:00,56.0,53.0,-100.00,West,278,2.0,4.0,91,0.00,,,-99.99,20.000000,,2013-05-11 12:01:00,
2013-05-11 12:11:00,56.0,53.0,-100.00,West,278,2.0,4.0,91,0.00,,,-99.99,20.000000,,2013-05-11 12:11:00,
2013-05-11 12:22:00,56.0,53.0,-100.00,West,278,2.0,4.0,91,0.00,,,-99.99,20.000000,,2013-05-11 12:22:00,
2013-05-11 12:32:00,56.0,53.0,-100.00,West,278,2.0,4.0,91,0.00,,,-99.99,20.000000,,2013-05-11 12:32:00,
2013-05-11 13:02:00,57.0,53.0,-100.00,NW,315,2.0,7.0,88,0.00,,,-99.99,97.000000,,2013-05-11 13:02:00,
2013-05-11 13:11:00,57.0,53.0,-100.00,NW,315,2.0,7.0,88,0.00,,,-99.99,97.000000,,2013-05-11 13:11:00,
2013-05-11 13:21:00,57.0,53.0,-100.00,NW,315,2.0,7.0,88,0.00,,,-99.99,97.000000,,2013-05-11 13:21:00,
2013-05-11 13:32:00,57.0,53.0,-100.00,NW,315,2.0,7.0,88,0.00,,,-99.99,97.000000,,2013-05-11 13:32:00,
2013-05-11 14:02:00,58.0,51.0,-100.00,WNW,300,4.0,9.0,78,0.00,,,0.36,241.000000,,2013-05-11 14:02:00,
2013-05-11 14:11:00,58.0,51.0,-100.00,WNW,300,4.0,9.0,78,0.00,,,0.36,241.000000,,2013-05-11 14:11:00,
2013-05-11 14:21:00,58.0,51.0,-100.00,WNW,300,4.0,9.0,78,0.00,,,0.36,241.000000,,2013-05-11 14:21:00,
2013-05-11 14:32:00,58.0,51.0,-100.00,WNW,300,4.0,9.0,78,0.00,,,0.36,241.000000,,2013-05-11 14:32:00,
2013-05-11 15:01:00,57.0,50.0,-100.00,NNW,330,3.0,9.0,78,0.00,,,0.14,130.000000,,2013-05-11 15:01:00,
2013-05-11 15:11:00,57.0,50.0,-100.00,NNW,330,3.0,9.0,78,0.00,,,0.14,130.000000,,2013-05-11 15:11:00,
2013-05-11 15:21:00,57.0,50.0,-100.00,NNW,330,3.0,9.0,78,0.00,,,0.14,130.000000,,2013-05-11 15:21:00,
2013-05-11 15:32:00,57.0,50.0,-100.00,NNW,330,3.0,9.0,78,0.00,,,0.14,130.000000,,2013-05-11 15:32:00,
2013-05-11 16:02:00,57.0,51.0,-100.00,WNW,289,2.0,6.0,79,0.00,,,0.05,110.000000,,2013-05-11 16:02:00,
2013-05-11 16:12:00,57.0,51.0,-100.00,WNW,289,2.0,6.0,79,0.00,,,0.05,110.000000,,2013-05-11 16:12:00,
2013-05-11 16:23:00,57.0,51.0,-100.00,WNW,289,2.0,6.0,79,0.00,,,0.05,110.000000,,2013-05-11 16:23:00,
2013-05-11 16:33:00,57.0,51.0,-100.00,WNW,289,2.0,6.0,79,0.00,,,0.05,110.000000,,2013-05-11 16:33:00,
2013-05-11 17:02:00,60.0,52.0,-100.00,WNW,283,3.0,7.0,74,0.00,,,0.02,241.000000,,2013-05-11 17:02:00,
2013-05-11 17:12:00,60.0,52.0,-100.00,WNW,283,3.0,7.0,74,0.00,,,0.02,241.000000,,2013-05-11 17:12:00,
2013-05-11 17:22:00,60.0,52.0,-100.00,WNW,283,3.0,7.0,74,0.00,,,0.02,241.000000,,2013-05-11 17:22:00,
2013-05-11 17:32:00,60.0,52.0,-100.00,WNW,283,3.0,7.0,74,0.00,,,0.02,241.000000,,2013-05-11 17:32:00,
2013-05-11 18:01:00,65.0,53.0,-100.00,WNW,286,5.0,12.0,64,0.00,,,0.01,574.000000,,2013-05-11 18:01:00,
2013-05-11 18:12:00,65.0,53.0,-100.00,WNW,286,5.0,12.0,64,0.00,,,0.01,574.000000,,2013-05-11 18:12:00,
2013-05-11 18:21:00,65.0,53.0,-100.00,WNW,286,5.0,12.0,64,0.00,,,0.01,574.000000,,2013-05-11 18:21:00,
2013-05-11 18:32:00,65.0,53.0,-100.00,WNW,286,5.0,12.0,64,0.00,,,0.01,574.000000,,2013-05-11 18:32:00,
2013-05-11 19:02:00,66.0,51.0,-100.00,WNW,295,6.0,13.0,58,0.00,,,0.01,849.000000,,2013-05-11 19:02:00,
2013-05-11 19:11:00,66.0,51.0,-100.00,WNW,295,6.0,13.0,58,0.00,,,0.01,849.000000,,2013-05-11 19:11:00,
2013-05-11 19:21:00,66.0,51.0,-100.00,WNW,295,6.0,13.0,58,0.00,,,0.01,849.000000,,2013-05-11 19:21:00,
2013-05-11 19:32:00,66.0,51.0,-100.00,WNW,295,6.0,13.0,58,0.00,,,0.01,849.000000,,2013-05-11 19:32:00,
2013-05-11 20:02:00,68.0,52.0,-100.00,NW,325,5.0,13.0,56,0.00,,,0.01,894.000000,,2013-05-11 20:02:00,
2013-05-11 20:12:00,68.0,52.0,-100.00,NW,325,5.0,13.0,56,0.00,,,0.01,894.000000,,2013-05-11 20:12:00,
2013-05-11 20:22:00,68.0,52.0,-100.00,NW,325,5.0,13.0,56,0.00,,,0.01,894.000000,,2013-05-11 20:22:00,
2013-05-11 20:32:00,68.0,52.0,-100.00,NW,325,5.0,13.0,56,0.00,,,0.01,894.000000,,2013-05-11 20:32:00,
2013-05-11 21:02:00,69.0,50.0,-100.00,WNW,292,4.0,11.0,50,0.00,,,0.01,718.000000,,2013-05-11 21:02:00,
2013-05-11 21:11:00,69.0,50.0,-100.00,WNW,292,4.0,11.0,50,0.00,,,0.01,718.000000,,2013-05-11 21:11:00,
2013-05-11 21:21:00,69.0,50.0,-100.00,WNW,292,4.0,11.0,50,0.00,,,0.01,718.000000,,2013-05-11 21:21:00,
2013-05-11 21:33:00,69.0,50.0,-100.00,WNW,292,4.0,11.0,50,0.00,,,0.01,718.000000,,2013-05-11 21:33:00,
2013-05-11 22:02:00,70.0,49.0,-100.00,WNW,283,5.0,10.0,48,0.00,,,0.01,99.000000,,2013-05-11 22:02:00,
2013-05-11 22:13:00,70.0,49.0,-100.00,WNW,283,5.0,10.0,48,0.00,,,0.01,99.000000,,2013-05-11 22:13:00,
2013-05-11 22:23:00,70.0,49.0,-100.00,WNW,283,5.0,10.0,48,0.00,,,0.01,99.000000,,2013-05-11 22:23:00,
2013-05-11 22:33:00,70.0,49.0,-100.00,WNW,283,5.0,10.0,48,0.00,,,0.01,99.000000,,2013-05-11 22:33:00,
2013-05-11 23:02:00,71.0,50.0,-100.00,WSW,245,3.0,7.0,47,0.00,,,0.01,184.000000,,2013-05-11 23:02:00,
2013-05-11 23:12:00,71.0,50.0,-100.00,WSW,245,3.0,7.0,47,0.00,,,0.01,184.000000,,2013-05-11 23:12:00,
2013-05-11 23:22:00,71.0,50.0,-100.00,WSW,245,3.0,7.0,47,0.00,,,0.01,184.000000,,2013-05-11 23:22:00,
2013-05-11 23:32:00,71.0,50.0,-100.00,WSW,245,3.0,7.0,47,0.00,,,0.01,184.000000,,2013-05-11 23:32:00,